"Pseudo-MPEC" for P11a1R3

Created 2020 Dec 1 14:07:10 UT using Find_Orb

Click here for an explanation of pseudo-MPECs

 
 Astrometry: 
     P11a1R3  C2020 11 26e'nB[):?2wSelH3uu;0UXiAstrometrys,21]kq;26v[3WMvPJPpF51
     P11a1R3  C2020 11 26R)EMEU\WDV0A!!lh]9#pJAwGL!QBr)K=0JMl(KF\wG7D=%'0\w[$F51
     P11a1R3  C2020 11 26t(Pu3rGweHlrP=OPyw7JnpQ%S(`1VBa,Uredacted;3SK0rQXd#bF51
     P11a1R3  C2020 11 26(,click8[3ir]^CicvK#-(EH45g%y`V2J3t,@ghSV:j:]YWhere3F51
     P11a1R3 |C2020 11 28+Z@3YB!3Wh8W(Hi-\=9*[UaPEU3Y3!GA+[,nOt-,WUOdkGWmQ9li807
     P11a1R3 |C2020 11 28HV[5WS6S^qqjfFM-u\6_(]qui0x[ST]ciLuBcN4yJTyh[`dQ#htu807
     P11a1R3 |C2020 11 28W^Mformk'PUJW*l@2L.1vcdeD%)V`D58s?I?!yNKVXrPjD_UAHs,807
     P11a1R3 |C2020 12 01Fxic.explanationOYSdK/8kXWF1_qB=iLah1/3io4h^wv30)R\8807
     P11a1R3 |C2020 12 01jMJ!M\`DXWh*rVh?)W4=ELnv_%%ka5hh6;$P9\a[AYk7G0@%x8$J807
     P11a1R3 |C2020 12 01,deULxkn@[cyf#5'8Va*mbnhAm=f'RZ7XX\My=jR]mge`Dj7B^%d807

Station data:
(807) Cerro Tololo Observatory, La Serena  (S30.169136 W70.805900)  Chile.
(F51) Pan-STARRS 1, Haleakala  (N20.707235 W156.255910)  US/Hawaii.
   Observers N. Primak, A. Schultz, S. Watters, J. Thiel, T. Goggia. Measurer
   PS1 Science Consortium. 1.8-m Ritchey-Chrétien + CCD.

Orbital elements:  P11a1R3
   Perihelion 2020 May 12.946152 +/- 2.39 TT = 22:42:27 (JD 2458982.446152)
Epoch 2020 Dec  1.0 TT = JDT 2459184.5   Earth MOID: 0.6072   AutoNEOCP
M  48.54007826 +/- 1.5              (J2000 ecliptic)
n   0.24023337 +/- 0.00524          Peri.  127.85477 +/- 0.8
a   2.56279470 +/- 0.0372           Node   241.40882 +/- 0.27
e   0.4179177 +/- 0.0073            Incl.   29.56508 +/- 0.15
P   4.10                   H 18.8   G  0.15   U  9.2  
q 1.49175734 +/- 0.0062    Q 3.63383205 +/- 0.0707
From 10 observations 2020 Nov. 26-Dec. 1; mean residual 0".13
Residuals in arcseconds: 
201126 F51  .03-  .01+    201128 807  .20-  .05+    201201 807  .10-  .03-    
201126 F51  .10+  .02+    201128 807  .22-  .14+    201201 807  .01+  .02-    
201126 F51  .06-  .04+    201128 807  .42+  .18-    
201126 F51  .02-  .07-    201201 807  .09+  .05+    

Ephemerides (geocentric):
Date (UTC) HH   RA              Dec         delta   r     elong  mag " sig PA
---- -- -- --  -------------   -----------  ------ ------ -----  --- ---- ---
2020 12 01 14  08 00 28.612   -09 34 08.92  1.5581 2.2206 119.9 22.5 .148 108
2020 12 01 15  08 00 27.263   -09 34 52.40  1.5579 2.2208 119.9 22.5 .161 108
2020 12 01 16  08 00 25.910   -09 35 35.86  1.5578 2.2210 120.0 22.5 .174 109
2020 12 01 17  08 00 24.554   -09 36 19.30  1.5576 2.2212 120.0 22.5 .187 109
2020 12 01 18  08 00 23.194   -09 37 02.72  1.5575 2.2214 120.0 22.5 .201 109
2020 12 01 19  08 00 21.831   -09 37 46.11  1.5573 2.2216 120.1 22.5 .214 109
2020 12 01 20  08 00 20.465   -09 38 29.49  1.5572 2.2218 120.1 22.5 .228 110
2020 12 01 21  08 00 19.094   -09 39 12.84  1.5570 2.2220 120.1 22.5 .242 110
2020 12 01 22  08 00 17.721   -09 39 56.17  1.5569 2.2223 120.2 22.5 .256 110
2020 12 01 23  08 00 16.344   -09 40 39.48  1.5567 2.2225 120.2 22.5 .271 110
2020 12 02 00  08 00 14.963   -09 41 22.76  1.5566 2.2227 120.2 22.5 .286 110
2020 12 02 01  08 00 13.579   -09 42 06.03  1.5565 2.2229 120.3 22.5 .301 110
2020 12 02 02  08 00 12.191   -09 42 49.27  1.5563 2.2231 120.3 22.5 .316 110
2020 12 02 03  08 00 10.800   -09 43 32.49  1.5562 2.2233 120.3 22.5 .331 111
2020 12 02 04  08 00 09.405   -09 44 15.69  1.5560 2.2235 120.4 22.5 .347 111
2020 12 02 05  08 00 08.007   -09 44 58.87  1.5559 2.2237 120.4 22.5 .362 111
2020 12 02 06  08 00 06.606   -09 45 42.02  1.5557 2.2239 120.4 22.5 .378 111
2020 12 02 07  08 00 05.201   -09 46 25.15  1.5556 2.2241 120.5 22.5 .395 111
2020 12 02 08  08 00 03.792   -09 47 08.26  1.5554 2.2243 120.5 22.5 .411 111
2020 12 02 09  08 00 02.380   -09 47 51.35  1.5553 2.2245 120.5 22.5 .428 111
2020 12 02 10  08 00 00.965   -09 48 34.42  1.5552 2.2247 120.6 22.5 .445 111
2020 12 02 11  07 59 59.546   -09 49 17.46  1.5550 2.2249 120.6 22.5 .462 111
2020 12 02 12  07 59 58.123   -09 50 00.48  1.5549 2.2251 120.6 22.5 .479 111
2020 12 02 13  07 59 56.697   -09 50 43.48  1.5547 2.2253 120.7 22.5 .496 111
2020 12 02 14  07 59 55.268   -09 51 26.46  1.5546 2.2255 120.7 22.5 .514 111
2020 12 02 15  07 59 53.835   -09 52 09.41  1.5545 2.2257 120.7 22.5 .532 111
2020 12 02 16  07 59 52.398   -09 52 52.35  1.5543 2.2259 120.8 22.5 .550 112
2020 12 02 17  07 59 50.959   -09 53 35.26  1.5542 2.2261 120.8 22.5 .568 112
2020 12 02 18  07 59 49.515   -09 54 18.14  1.5540 2.2263 120.8 22.5 .587 112
2020 12 02 19  07 59 48.068   -09 55 01.01  1.5539 2.2265 120.9 22.5 .606 112
2020 12 02 20  07 59 46.618   -09 55 43.85  1.5538 2.2268 120.9 22.5 .625 112
2020 12 02 21  07 59 45.164   -09 56 26.67  1.5536 2.2270 120.9 22.5 .644 112
2020 12 02 22  07 59 43.707   -09 57 09.46  1.5535 2.2272 121.0 22.5 .663 112
2020 12 02 23  07 59 42.246   -09 57 52.24  1.5533 2.2274 121.0 22.5 .683 112
2020 12 03 00  07 59 40.782   -09 58 34.99  1.5532 2.2276 121.0 22.5 .703 112
2020 12 03 01  07 59 39.315   -09 59 17.71  1.5531 2.2278 121.1 22.5 .723 112
2020 12 03 02  07 59 37.844   -10 00 00.42  1.5529 2.2280 121.1 22.5 .743 112
2020 12 03 03  07 59 36.369   -10 00 43.10  1.5528 2.2282 121.1 22.5 .763 112
2020 12 03 04  07 59 34.891   -10 01 25.76  1.5526 2.2284 121.2 22.5 .784 112
2020 12 03 05  07 59 33.410   -10 02 08.39  1.5525 2.2286 121.2 22.5 .805 112
2020 12 03 06  07 59 31.925   -10 02 51.01  1.5524 2.2288 121.2 22.5 .826 112
2020 12 03 07  07 59 30.436   -10 03 33.60  1.5522 2.2290 121.2 22.5 .847 112
2020 12 03 08  07 59 28.944   -10 04 16.16  1.5521 2.2292 121.3 22.5 .869 112
2020 12 03 09  07 59 27.449   -10 04 58.70  1.5520 2.2294 121.3 22.5 .891 112
2020 12 03 10  07 59 25.950   -10 05 41.22  1.5518 2.2296 121.3 22.5 .913 112
2020 12 03 11  07 59 24.448   -10 06 23.72  1.5517 2.2298 121.4 22.5 .935 112
2020 12 03 12  07 59 22.943   -10 07 06.19  1.5516 2.2300 121.4 22.5 .957 112
2020 12 03 13  07 59 21.434   -10 07 48.64  1.5514 2.2302 121.4 22.5 .980 112